Regional Weather Roundup
Issued by NWS

Home | Current Version | Previous Version | Text Only | Print | Product List | Glossary Off
Versions: 1 2 3 4 5 6 7 8 9 10 11 12 13 14 15 16 17 18 19 20 21 22 23 24 25 26 27 28 29 30 31 32 33 34 35 36 37 38 39 40 41 42 43 44 45 46 47 48 49 50

000
ASUS43 KOAX 290510
RWRNE

WEATHER ROUNDUP FOR NEBRASKA
NATIONAL WEATHER SERVICE OMAHA NE
1200 AM CDT THU SEP 29 2016

NOTES: SATELLITE DATA IS BEING USED TO AUGMENT CLOUD COVER ABOVE
       12000 FEET.
       "FAIR" INDICATES FEW OR NO CLOUDS BELOW 12,000 FEET WITH NO
       SIGNIFICANT WEATHER AND/OR OBSTRUCTIONS TO VISIBILITY.

  * THESE STATIONS DO NOT REPORT WEATHER SUCH AS RAIN...SNOW OR FOG.

NEZ001>004-019>022-054>056-290600-
NEBRASKA PANHANDLE

CITY           SKY/WX    TMP DP  RH WIND       PRES   REMARKS
SCOTTSBLUFF    CLEAR     59  43  55 E13       30.34R
ALLIANCE       CLEAR     49  41  74 SE5       30.36R
CHADRON        CLEAR     60  41  49 SE6       30.33R
KIMBALL        CLEAR     51  39  64 SE7       30.39R
SIDNEY         CLEAR     53  39  59 SE10      30.39R
$$

NEZ057>060-069>072-079>082-290600-
SOUTHWEST NEBRASKA

CITY           SKY/WX    TMP DP  RH WIND       PRES   REMARKS
NORTH PLATTE   CLEAR     45  36  70 E5        30.36R
IMPERIAL       CLEAR     52  35  52 E8        30.36R
LEXINGTON      CLEAR     48  42  77 CALM      30.37R
MCCOOK         CLEAR     50  37  61 NE7       30.35R
OGALLALA       CLEAR     52  38  60 E3        30.37R
$$

NEZ005>010-023>029-035>040-094-290600-
NORTH CENTRAL NEBRASKA

CITY           SKY/WX    TMP DP  RH WIND       PRES   REMARKS
VALENTINE      CLEAR     50  41  71 CALM      30.38R
AINSWORTH      CLEAR     46  42  86 SE5       30.38R
BROKEN BOW     CLEAR     49  42  77 CALM      30.36R
O`NEILL        CLOUDY    44  40  86 E7        30.39R
ORD            LGT RAIN  44  39  82 CALM      30.36R
THEDFORD       CLEAR     47  40  77 CALM      30.38S
$$

NEZ041-046>049-061>064-073>077-083>087-290600-
SOUTH CENTRAL NEBRASKA

CITY           SKY/WX    TMP DP  RH WIND       PRES   REMARKS
GRAND ISLAND   CLEAR     46  41  82 E5        30.37R
AURORA         CLEAR     47  44  90 NE3       30.36S
HASTINGS       CLEAR     50  42  74 E7        30.36R
HEBRON         CLEAR     47  43  85 CALM      30.35R
HOLDREGE       CLEAR     47  40  75 CALM      30.36R
KEARNEY *      CLEAR     46  39  76 NE6       30.35S
YORK           CLEAR     45  43  93 NE5       30.36S
$$

NEZ011>018-030>034-042>045-290600-
NORTHEAST NEBRASKA

CITY           SKY/WX    TMP DP  RH WIND       PRES   REMARKS
NORFOLK        CLOUDY    46  42  86 CALM      30.37R
ALBION         CLOUDY    46  41  83 CALM      30.38R
BLAIR          CLEAR     53  47  81 N6        30.34R
FREMONT        CLEAR     48  44  87 CALM      30.36R
TEKAMAH        CLEAR     47  44  90 N6        30.35R
WAYNE          CLEAR     42  40  94 CALM      30.38S
$$

NEZ050>053-065>068-078-088>093-290600-
SOUTHEAST NEBRASKA

CITY           SKY/WX    TMP DP  RH WIND       PRES   REMARKS
LINCOLN        CLEAR     48  45  89 N7        30.36R
OMAHA EPPLEY   CLEAR     50  45  83 N7        30.34R
BEATRICE       CLEAR     49  46  88 NE3       30.34R
FALLS CITY     CLEAR     53  49  86 NW5       30.31R
NEBRASKA CITY  CLEAR     51  45  81 N6        30.33R
PLATTSMOUTH    CLEAR     52  45  77 N3        30.33S
$$

NEZ044-045-051>053-067-290600-
OMAHA AREA

CITY           SKY/WX    TMP DP  RH WIND       PRES   REMARKS
OMAHA EPPLEY   CLEAR     50  45  83 N7        30.34R
BLAIR          CLEAR     53  47  81 N6        30.34R
FREMONT        CLEAR     48  44  87 CALM      30.36R
MILLARD        CLEAR     53  47  83 NW3       30.34R
OFFUTT AFB     CLEAR     47  47  99 N2        30.33R
PLATTSMOUTH    CLEAR     52  45  77 N3        30.33S
WAHOO          FAIR      49  45  87 NW5       30.36R
$$




USA.gov is the U.S. government's official web portal to all federal, state and local government web resources and services.